This demonstration page uses our WeatherBlox Daily Observations layout. Learn more.

Hourly Observations for August 10, 2019

Temp ( °F °C ) Dew Point ( °F °C ) Humidity (%) Winds ( mph kmh ) Pressure ( in mb ) Visibility ( mi km ) Precip ( " mm )
12:15 am 00:15 Clear 73 23 55 13 53 53 NW 5 7 29.91 1013 10 16.09344 0 0
12:35 am 00:35 Clear 70 21 57 14 64 64 NW 6 9 29.91 1013 10 16.09344 0 0
12:55 am 00:55 Clear 70 21 57 14 64 64 NW 10 17 29.91 1013 10 16.09344 0 0
1:15 am 01:15 Clear 70 21 57 14 64 64 NW 6 9 29.94 1014 10 16.09344 0 0
1:35 am 01:35 Clear 70 21 57 14 64 64 NW 7 11 29.94 1014 10 16.09344 0 0
1:55 am 01:55 Clear 70 21 57 14 64 64 NNW 7 11 29.94 1014 10 16.09344 0 0
2:15 am 02:15 Clear 68 20 57 14 69 69 NW 10 17 29.91 1013 10 16.09344 0 0
2:35 am 02:35 Clear 68 20 57 14 69 69 NW 6 9 29.94 1014 10 16.09344 0 0
2:55 am 02:55 Clear 64 18 59 15 83 83 WNW 3 6 29.94 1014 10 16.09344 0 0
3:15 am 03:15 Clear 63 17 57 14 83 83 W 3 6 29.91 1013 10 16.09344 0 0
3:35 am 03:35 Clear 63 17 57 14 83 83 W 6 9 29.91 1013 10 16.09344 0 0
3:55 am 03:55 Clear 63 17 57 14 83 83 W 5 7 29.91 1013 10 16.09344 0 0
4:15 am 04:15 Clear 63 17 57 14 83 83 WNW 6 9 29.91 1013 10 16.09344 0 0
4:35 am 04:35 Clear 64 18 57 14 78 78 NW 7 11 29.91 1013 10 16.09344 0 0
4:55 am 04:55 Clear 64 18 57 14 78 78 NW 8 13 29.91 1013 10 16.09344 0 0
5:15 am 05:15 Clear 64 18 57 14 78 78 NW 7 11 29.91 1013 10 16.09344 0 0
5:35 am 05:35 Clear 64 18 57 14 78 78 NW 9 15 29.91 1013 10 16.09344 0 0
5:55 am 05:55 Clear 64 18 55 13 73 73 NW 9 15 29.91 1013 10 16.09344 0 0
6:15 am 06:15 Clear 64 18 57 14 78 78 Calm 29.91 1013 10 16.09344 0 0
6:35 am 06:35 Sunny 66 19 55 13 68 68 NNW 7 11 29.91 1013 10 16.09344 0 0
6:55 am 06:55 Sunny 68 20 57 14 69 69 Calm 29.94 1014 10 16.09344 0 0
7:15 am 07:15 Sunny 68 20 57 14 69 69 SSE 3 6 29.94 1014 10 16.09344 0 0
7:35 am 07:35 Sunny 68 20 59 15 73 73 W 8 13 29.94 1014 10 16.09344 0 0
7:55 am 07:55 Sunny 70 21 59 15 69 69 Calm 29.97 1015 10 16.09344 0 0
8:15 am 08:15 Sunny 72 22 59 15 65 65 W 3 6 29.97 1015 10 16.09344 0 0
8:35 am 08:35 Sunny 72 22 59 15 65 65 W 6 9 29.97 1015 10 16.09344 0 0
8:55 am 08:55 Sunny 72 22 61 16 69 69 WNW 3 6 29.97 1015 10 16.09344 0 0
9:15 am 09:15 Sunny 73 23 61 16 65 65 W 3 6 29.97 1015 10 16.09344 0 0
9:35 am 09:35 Sunny 75 24 61 16 61 61 Calm 29.94 1014 10 16.09344 0 0
9:55 am 09:55 Sunny 77 25 61 16 57 57 SW 3 6 29.97 1015 10 16.09344 0 0
10:15 am 10:15 Sunny 77 25 61 16 57 57 W 7 11 29.97 1015 10 16.09344 0 0
10:35 am 10:35 Sunny 79 26 61 16 54 54 W 5 7 29.97 1015 10 16.09344 0 0
10:55 am 10:55 Sunny 79 26 61 16 54 54 WSW 3 6 29.97 1015 10 16.09344 0 0
11:15 am 11:15 Sunny 79 26 61 16 54 54 W 6 9 29.97 1015 10 16.09344 0 0
11:35 am 11:35 Sunny 79 26 61 16 54 54 WNW 5 7 29.97 1015 10 16.09344 0 0
11:55 am 11:55 Sunny 79 26 61 16 54 54 NW 6 9 29.97 1015 10 16.09344 0 0
12:15 pm 12:15 Sunny 79 26 61 16 54 54 NW 9 15 29.97 1015 10 16.09344 0 0
12:35 pm 12:35 Sunny 81 27 61 16 51 51 NNW 10 17 29.97 1015 10 16.09344 0 0
12:55 pm 12:55 Sunny 79 26 61 16 54 54 NW 7 11 29.97 1015 10 16.09344 0 0
1:15 pm 13:15 Sunny 81 27 61 16 51 51 NW 12 19 29.94 1014 10 16.09344 0 0
1:35 pm 13:35 Sunny 81 27 63 17 54 54 WNW 9 15 29.94 1014 10 16.09344 0 0
1:55 pm 13:55 Sunny 81 27 61 16 51 51 W 10 17 29.94 1014 10 16.09344 0 0
2:15 pm 14:15 Sunny 81 27 61 16 51 51 W 12 19 29.94 1014 10 16.09344 0 0
2:35 pm 14:35 Partly Cloudy 82 28 61 16 48 48 WNW 13 20 29.94 1014 10 16.09344 0 0
2:55 pm 14:55 Partly Cloudy 81 27 59 15 48 48 WNW 9 15 29.91 1013 10 16.09344 0 0
3:15 pm 15:15 Partly Cloudy 81 27 59 15 48 48 NW 13 20 29.91 1013 10 16.09344 0 0
3:35 pm 15:35 Sunny 81 27 57 14 45 45 WNW 14 22 29.91 1013 10 16.09344 0 0
3:55 pm 15:55 Sunny 84 29 59 15 43 43 NW 9 15 29.91 1013 10 16.09344 0 0
4:15 pm 16:15 Sunny 82 28 55 13 40 40 WNW 13 20 29.91 1013 10 16.09344 0 0
4:35 pm 16:35 Partly Cloudy 82 28 57 14 42 42 NNW 14 22 29.91 1013 10 16.09344 0 0
4:55 pm 16:55 Sunny 84 29 55 13 37 37 N 14 22 29.91 1013 10 16.09344 0 0
5:15 pm 17:15 Sunny 84 29 55 13 37 37 NW 8 13 29.91 1013 10 16.09344 0 0
5:35 pm 17:35 Sunny 84 29 55 13 37 37 NW 13 20 29.91 1013 10 16.09344 0 0
5:55 pm 17:55 Sunny 82 28 55 13 40 40 NW 8 13 29.91 1013 10 16.09344 0 0
6:15 pm 18:15 Sunny 82 28 55 13 40 40 NW 13 20 29.91 1013 10 16.09344 0 0
6:35 pm 18:35 Sunny 82 28 55 13 40 40 NW 9 15 29.91 1013 10 16.09344 0 0
6:55 pm 18:55 Sunny 82 28 55 13 40 40 NW 9 15 29.91 1013 10 16.09344 0 0
7:15 pm 19:15 Sunny 81 27 57 14 45 45 WNW 9 15 29.91 1013 10 16.09344 0 0
7:35 pm 19:35 Sunny 81 27 57 14 45 45 WNW 6 9 29.91 1013 10 16.09344 0 0
7:55 pm 19:55 Sunny 79 26 57 14 48 48 NW 5 7 29.91 1013 10 16.09344 0 0
8:15 pm 20:15 Clear 77 25 57 14 51 51 WNW 5 7 29.94 1014 10 16.09344 0 0
8:35 pm 20:35 Clear 75 24 59 15 57 57 WNW 5 7 29.94 1014 10 16.09344 0 0
8:55 pm 20:55 Clear 75 24 59 15 57 57 NW 3 6 29.94 1014 10 16.09344 0 0
9:15 pm 21:15 Partly Cloudy 72 22 59 15 65 65 Calm 29.94 1014 10 16.09344 0 0
9:35 pm 21:35 Mostly Cloudy 72 22 61 16 69 69 WNW 3 6 29.97 1015 10 16.09344 0 0
9:55 pm 21:55 Partly Cloudy 72 22 61 16 69 69 Calm 29.97 1015 10 16.09344 0 0
10:15 pm 22:15 Clear 70 21 61 16 73 73 Calm 29.97 1015 10 16.09344 0 0
10:35 pm 22:35 Clear 73 23 59 15 61 61 Calm 29.97 1015 10 16.09344 0 0
10:55 pm 22:55 Clear 70 21 59 15 69 69 Calm 29.97 1015 10 16.09344 0 0
11:15 pm 23:15 Clear 70 21 61 16 73 73 Calm 30 1016 10 16.09344 0 0
11:35 pm 23:35 Clear 70 21 61 16 73 73 Calm 30 1016 10 16.09344 0 0
11:55 pm 23:55 Clear 66 19 61 16 83 83 W 3 6 30 1016 10 16.09344 0 0

Powered by AerisWeather